Estación de El Refugio

Ultimos registro cada 15 minutos 27
Estación Fecha / Hora Temperatura Humedad Lluvia Velocidad Dirección Radiación Presion
27 El Refugio 06-05-2026 06:30 8,4 90 0 0 296 0 1035,9
26 El Refugio 06-05-2026 06:15 8,9 91 0 0 296 0 1035,7
25 El Refugio 06-05-2026 06:00 9 91 0 0 296 0 1035,5
24 El Refugio 06-05-2026 05:45 9 91 0 0 296 0 1035,5
23 El Refugio 06-05-2026 05:30 8,9 91 0 0 296 0 1035,3
22 El Refugio 06-05-2026 05:15 8,7 91 0 0 296 0 1035,3
21 El Refugio 06-05-2026 05:00 8,6 90 0 0 296 0 1034,6
20 El Refugio 06-05-2026 04:45 8,6 90 0 0 296 0 1034,6
19 El Refugio 06-05-2026 04:30 8,9 90 0 0 296 0 1034,4
18 El Refugio 06-05-2026 04:15 9,2 90 0 0 296 0 1034,6
17 El Refugio 06-05-2026 04:00 9,1 91 0 0 296 0 1034,8
16 El Refugio 06-05-2026 03:45 9,1 91 0 0 296 0 1034,8
15 El Refugio 06-05-2026 03:30 8,9 88 0 0 296 0 1034,7
14 El Refugio 06-05-2026 03:15 9,2 87 0 0 296 0 1034,5
13 El Refugio 06-05-2026 03:00 10,2 88 0 0 296 0 1034,5
12 El Refugio 06-05-2026 02:45 10,2 88 0 0 296 0 1034,5
11 El Refugio 06-05-2026 02:30 10,3 88 0 0 296 0 1034,6
10 El Refugio 06-05-2026 02:15 10,5 88 0 0 296 0 1034,8
9 El Refugio 06-05-2026 02:00 10,9 87 0 0 296 0 1034,9
8 El Refugio 06-05-2026 01:45 10,9 87 0 0 296 0 1034,9
7 El Refugio 06-05-2026 01:30 11,2 88 0 0 296 0 1034,9
6 El Refugio 06-05-2026 01:15 11,2 88 0 0 296 0 1035
5 El Refugio 06-05-2026 01:00 11,3 88 0 0 296 0 1035,4
4 El Refugio 06-05-2026 00:45 11,3 88 0 0 296 0 1035,4
3 El Refugio 06-05-2026 00:30 11,3 87 0 0 296 0 1035,3
2 El Refugio 06-05-2026 00:15 11,4 87 0 0 296 0 1035,5
1 El Refugio 06-05-2026 00:00 11,8 85 0 0 296 0 1035,6